GFSGL_prec_cthk_111.txt.gz
RH
47 37 37 35 34 35 40 50 62 69 73 75 79 82 77 67 55 52 48 45 41 38 38 36 41 47 45 44 43 40 42 43 38 37 37 40 42 45 36 32 28 39 41
54 45 45 45 50 54 43 42 45 49 55 64 75 77 77 77 71 64 55 47 47 46 46 45 41 43 44 42 41 40 43 38 39 37 34 36 35 35 32 31 37 49 44
75 68 67 71 79 89 69 48 44 46 45 44 46 54 66 79 76 80 79 68 59 60 59 57 57 58 56 49 48 49 47 48 47 43 39 36 35 37 42 44 49 50 44
87 81 77 85 88 95 94 83 77 75 68 63 58 59 53 52 58 64 80 81 79 77 77 76 74 71 65 62 61 59 58 57 55 59 58 55 54 53 53 51 50 50 49
90 87 89 92 93 94 92 95 94 92 88 89 83 80 81 74 59 66 72 76 83 85 86 86 85 82 80 79 76 76 82 81 75 70 64 60 60 59 58 58 58 57 55
89 90 91 92 94 91 93 92 93 96 96 94 88 84 85 89 86 76 73 76 83 84 85 86 88 87 88 85 85 84 82 81 83 80 76 75 74 76 78 74 71 67 66
90 92 95 96 92 87 87 88 91 94 93 89 85 82 81 90 89 88 85 84 82 87 84 86 84 82 82 78 76 71 73 75 78 81 80 78 76 76 76 76 75 75 74
92 94 88 90 92 91 88 85 85 88 85 83 80 75 81 84 93 92 88 87 86 88 88 85 85 81 78 73 71 71 72 73 72 73 73 71 67 67 70 72 73 73 71
94 88 87 88 86 86 89 85 77 80 79 79 81 78 75 84 89 90 91 87 86 80 80 87 86 79 82 79 77 77 74 73 74 72 73 71 68 68 69 71 72 73 72
85 88 88 89 87 87 84 83 82 81 74 78 76 75 75 72 70 75 78 77 71 68 82 82 79 82 78 77 76 74 71 69 67 67 70 71 70 67 65 70 73 74 75
98 97 96 91 92 88 86 86 89 88 84 82 80 80 79 77 75 68 65 66 67 67 67 63 62 64 65 68 70 71 70 71 75 76 77 75 73 73 74 73 73 72 73
98 98 97 92 89 83 83 82 82 82 80 81 81 80 78 78 79 79 77 76 77 76 73 70 66 66 69 70 68 66 68 65 60 59 52 50 48 41 36 33 30 27 25
83 87 86 84 83 74 74 73 68 70 70 69 71 72 75 73 76 75 78 78 73 72 78 74 69 65 63 65 63 62 56 47 48 50 41 35 28 23 22 23 21 20 20
70 71 71 74 71 72 70 68 65 64 66 67 68 68 72 72 73 73 72 72 71 62 66 69 68 65 60 58 54 49 44 43 41 37 32 29 26 24 23 23 22 22 22
58 59 61 62 62 62 60 59 60 59 58 57 56 54 52 53 53 52 55 59 60 57 62 58 56 64 64 61 55 53 48 42 38 35 31 29 27 25 24 25 25 25 24
48 48 47 49 50 50 50 50 49 48 50 52 53 52 53 53 52 52 55 52 49 46 44 48 49 51 55 58 57 53 49 43 38 35 32 31 30 30 30 31 31 31 31
44 45 47 47 47 48 49 48 47 46 45 43 42 41 41 41 41 40 41 41 43 44 44 48 47 53 53 48 52 50 47 45 42 40 39 39 39 38 38 37 37 36 35
39 40 41 42 44 46 46 47 48 48 47 47 48 49 50 51 50 47 46 45 44 45 47 50 50 50 50 53 51 48 47 48 47 46 44 42 41 39 36 33 31 29 28
45 45 42 39 38 40 41 41 40 41 43 44 45 44 43 42 42 40 39 40 41 42 44 46 48 48 47 47 47 45 42 40 38 36 34 33 32 31 28 27 25 23 20
62 62 57 54 54 51 50 50 49 46 44 44 42 39 36 32 29 24 23 24 25 28 31 35 38 40 40 37 37 33 31 32 30 29 27 24 19 16 15 14 15 15 16
44 49 53 54 57 57 48 45 46 46 47 46 44 43 42 38 35 32 29 29 29 30 30 29 27 25 23 21 18 16 15 14 13 13 13 14 15 15 16 17 18 19 21
30 30 32 39 49 56 59 62 58 55 55 54 52 47 42 38 36 34 31 28 28 28 28 27 25 24 22 20 18 17 17 16 16 16 15 15 17 18 20 21 22 23 24
17 19 22 25 28 32 37 44 46 50 58 58 62 58 56 50 48 45 38 36 35 32 30 28 27 26 25 24 24 22 21 20 20 19 19 20 21 22 24 25 26 27 29
17 19 22 24 28 29 34 42 49 52 57 59 62 65 67 70 65 55 57 51 48 42 37 34 35 36 34 31 29 28 27 27 26 25 24 26 27 28 30 32 36 38 39
17 18 23 27 30 30 33 36 40 55 67 78 72 70 75 76 73 70 64 60 58 54 52 50 48 47 44 44 41 37 35 34 32 32 32 33 35 39 42 43 44 44 43
26 28 32 38 41 44 40 36 37 48 63 76 78 80 79 81 82 77 73 71 70 68 66 62 60 60 59 58 54 51 47 44 43 44 44 43 46 48 48 47 48 46 44

GFSGL_prec_cthk_114.txt.gz
RH
39 36 39 42 45 57 63 65 70 80 84 84 81 77 75 81 71 59 52 50 46 45 43 40 40 39 42 44 43 42 40 37 36 38 31 31 32 33 39 35 31 31 37
53 51 40 36 36 35 34 42 58 66 66 73 76 77 83 83 79 68 58 58 54 48 48 47 46 44 40 40 42 39 37 37 35 33 31 28 27 28 30 30 35 45 48
58 59 53 42 39 39 41 40 40 53 51 47 55 63 72 75 80 79 80 82 75 63 58 59 61 61 58 61 60 53 48 49 45 46 47 49 48 47 47 49 50 48 47
66 72 73 69 59 63 67 76 61 50 56 56 50 47 47 50 54 62 68 75 84 83 76 76 74 74 79 77 71 64 62 60 61 63 60 61 60 56 55 54 53 55 55
82 86 87 92 85 73 78 86 88 70 77 85 82 76 71 72 72 61 58 61 74 77 78 85 88 87 84 80 82 82 78 80 80 80 77 73 68 67 70 70 68 65 62
88 89 93 93 90 82 87 88 96 94 96 95 93 93 91 88 86 86 82 76 73 78 84 87 89 90 89 86 85 84 83 83 83 82 81 83 81 79 78 79 79 74 73
94 98 95 94 91 90 91 94 95 95 97 96 96 95 88 87 87 85 89 87 78 76 81 89 91 91 89 86 87 82 79 78 72 71 73 73 78 77 77 75 73 72 74
95 95 95 96 96 92 94 90 92 93 95 92 88 85 85 81 84 83 90 89 87 85 87 90 91 91 92 91 87 80 77 74 73 75 74 72 73 73 72 70 68 68 70
98 95 95 90 87 90 91 94 93 88 89 90 86 85 86 81 78 84 90 89 94 92 90 88 84 85 88 89 88 87 85 81 79 74 72 70 69 68 69 71 72 74 72
92 96 98 88 87 91 96 98 97 89 84 83 81 80 79 78 75 70 70 71 74 76 77 72 76 85 86 82 71 68 70 77 78 76 72 68 68 70 72 72 74 74 74
94 92 95 88 90 97 98 97 97 93 89 87 85 81 79 79 76 73 71 69 68 65 62 64 66 69 68 66 63 65 69 68 67 70 71 72 72 69 64 63 60 61 64
93 92 91 92 99 98 96 92 91 92 88 86 87 84 79 77 76 74 72 74 75 76 76 77 76 76 73 70 66 65 66 69 67 64 66 60 55 50 48 38 29 23 22
90 88 93 96 91 89 91 89 85 84 79 75 74 74 74 74 75 73 70 68 68 68 71 75 76 74 74 71 70 68 68 67 66 64 55 47 43 40 30 24 21 20 20
74 78 85 94 91 89 87 84 82 80 76 72 70 68 65 64 64 64 64 59 60 61 64 66 70 66 64 67 65 67 64 61 55 49 45 40 37 31 26 25 23 22 22
62 63 64 65 69 70 72 76 72 72 69 68 68 64 61 58 56 53 53 49 48 45 46 55 59 60 63 63 62 61 61 63 59 52 47 39 33 30 29 28 27 26 26
48 47 49 50 51 52 53 54 54 54 53 53 53 51 52 53 53 52 52 53 52 52 48 45 44 47 50 46 49 49 48 47 46 50 48 44 41 38 35 33 32 31 31
45 46 47 47 47 47 46 46 46 45 44 44 43 41 41 40 40 39 40 40 38 42 44 43 50 50 49 50 52 54 53 51 50 54 50 47 44 44 43 43 44 43 39
37 39 40 41 41 42 41 40 40 41 43 44 43 43 43 43 43 43 43 42 41 41 42 44 48 48 49 50 50 48 48 47 47 45 42 41 41 40 40 39 37 36 35
44 43 43 43 44 43 41 41 42 41 40 41 42 44 44 43 42 39 37 37 37 36 37 40 45 49 49 48 46 44 42 41 40 39 38 37 36 35 34 34 33 32 31
55 53 50 53 55 55 53 50 49 47 49 49 48 49 47 46 43 40 37 34 31 30 31 33 36 36 35 33 31 28 27 28 28 26 26 25 21 20 20 19 17 16 16
37 41 45 41 37 40 45 49 52 48 44 44 46 45 43 43 43 42 39 35 33 34 37 38 38 38 35 31 29 26 22 19 18 17 16 14 14 14 14 15 16 18 19
23 23 23 24 24 25 26 33 37 41 49 52 54 54 52 52 51 50 45 40 38 38 38 37 35 32 29 27 25 25 23 21 20 19 16 15 16 17 19 20 21 23 24
10 11 11 12 15 18 22 23 27 30 36 42 45 43 46 47 49 52 53 55 53 50 48 45 39 35 32 31 29 27 25 23 21 20 20 21 21 23 24 26 28 29 29
11 11 11 13 16 20 23 24 26 28 31 35 47 51 61 52 54 64 60 61 64 62 61 57 51 46 42 40 39 35 32 30 28 28 28 28 29 31 33 33 34 35 36
15 17 18 18 20 23 27 29 30 30 29 30 34 41 55 79 72 77 70 74 76 75 71 68 67 65 61 58 53 49 46 44 42 40 38 37 39 40 40 40 40 43 45
16 17 18 20 22 26 31 35 36 38 38 37 37 40 52 71 81 83 85 87 83 78 77 77 74 71 69 68 66 63 58 57 55 51 48 44 41 43 47 50 51 53 54

GFSGL_prec_cthk_117.txt.gz
RH
39 53 57 60 62 70 77 75 77 77 81 85 81 78 76 69 66 68 60 53 48 44 41 40 40 39 37 39 39 45 45 45 41 39 36 34 29 28 28 28 29 33 45
41 37 37 42 44 48 54 68 67 66 73 79 80 79 77 75 80 78 69 59 56 57 54 49 45 43 43 48 42 44 43 42 43 46 47 43 43 42 40 41 47 50 52
47 51 51 45 39 39 38 36 34 40 52 65 62 67 72 75 80 78 77 70 72 74 70 60 56 58 61 70 69 72 70 61 59 58 55 55 54 53 55 53 55 54 55
58 54 58 59 53 45 45 42 43 41 40 44 48 45 50 56 58 71 74 76 76 77 79 83 72 75 75 78 86 84 79 77 74 73 73 77 72 69 63 61 62 61 61
69 64 58 65 67 64 64 59 59 68 68 57 50 51 50 52 52 59 57 52 53 57 67 79 81 83 87 90 89 88 87 86 86 83 86 83 85 86 79 78 77 77 76
77 76 73 77 87 89 89 92 83 76 77 83 72 68 78 84 80 82 83 86 80 74 69 74 80 86 89 90 88 88 86 85 84 84 84 85 84 82 83 82 81 83 84
90 92 88 94 94 94 93 92 90 86 86 89 79 88 92 92 93 90 86 84 84 82 82 80 79 82 88 90 91 88 86 80 80 77 75 72 69 70 73 74 72 74 77
93 95 96 95 97 98 96 94 91 92 93 93 94 94 94 96 91 88 89 85 83 87 89 88 86 84 88 90 87 86 84 83 81 79 78 76 74 73 72 72 71 73 73
91 93 94 99 98 99 98 99 91 90 91 94 91 91 90 88 87 86 85 88 93 88 91 90 88 88 88 84 82 85 85 81 73 75 78 75 74 70 68 69 69 69 73
92 95 97 99 99 97 93 92 92 94 94 96 97 92 92 91 86 85 82 77 76 78 80 81 79 75 75 79 80 79 72 62 61 61 61 62 67 71 73 72 68 69 70
92 94 95 97 97 96 94 94 97 98 99 95 95 92 92 91 88 83 80 78 73 74 71 67 68 69 69 70 70 69 68 67 65 63 63 63 63 62 63 60 55 50 48
95 97 99 94 97 96 97 97 99 94 97 92 97 96 94 90 86 83 79 75 73 72 73 73 73 73 75 76 77 74 70 65 66 64 63 63 58 54 55 51 47 42 34
93 95 95 92 89 92 91 91 91 95 93 93 92 91 87 84 85 80 78 72 70 70 70 70 71 72 70 69 69 68 67 64 66 62 61 56 54 47 42 36 35 29 23
86 83 80 80 81 85 85 95 93 96 97 92 89 85 81 78 69 64 62 60 57 56 54 56 59 59 61 61 65 66 63 63 61 60 57 52 48 43 35 33 29 27 26
72 72 71 72 74 83 89 92 88 92 85 86 83 75 68 65 61 59 55 52 51 50 49 45 44 46 54 53 60 69 59 59 59 56 54 51 49 46 41 39 33 29 29
54 54 53 55 59 59 61 64 69 68 70 65 61 58 56 60 57 55 53 52 52 51 50 50 48 44 44 46 48 52 48 54 51 43 43 41 39 38 41 40 40 37 37
54 53 52 50 50 49 49 49 50 49 47 46 46 45 45 43 43 42 40 40 39 41 44 45 43 45 47 47 50 50 48 48 47 44 42 49 44 42 42 41 41 42 43
41 42 41 40 40 39 39 39 40 39 40 43 43 42 41 40 40 40 40 39 39 39 38 41 45 42 44 45 45 44 45 45 42 40 39 38 38 37 37 38 39 39 40
41 40 40 41 40 41 40 40 40 39 39 40 41 41 40 41 41 42 43 41 41 41 40 40 40 41 43 43 43 42 39 37 34 32 32 31 29 29 30 31 31 31 31
45 46 47 46 46 48 49 48 48 49 48 46 46 46 45 45 45 46 45 43 39 36 33 32 34 37 38 38 37 35 31 28 26 24 23 21 18 16 16 17 19 22 22
25 25 25 25 25 24 25 26 26 27 30 34 39 38 37 38 40 42 43 40 38 36 36 38 39 41 40 39 40 36 32 30 29 27 25 22 22 22 21 21 22 22 23
14 13 12 12 12 15 17 18 20 22 23 24 28 32 35 38 39 41 44 45 46 46 45 43 46 46 41 35 32 30 31 30 27 25 23 22 21 23 24 26 27 27 27
9 9 9 11 12 12 15 18 20 22 23 24 25 26 30 33 36 36 36 39 39 39 40 42 42 43 41 40 39 39 39 35 31 28 26 25 25 27 29 31 32 34 35
13 14 14 15 16 17 21 22 23 26 25 26 26 27 28 31 33 48 48 44 50 53 52 59 57 52 49 50 49 48 44 41 38 36 35 35 37 33 38 39 40 41 43
15 16 16 17 18 20 22 25 26 27 29 31 33 36 37 36 34 35 50 63 80 73 72 76 73 66 65 63 60 59 60 60 56 52 49 47 47 45 47 48 48 49 50
17 17 18 19 21 21 22 23 25 27 31 36 42 45 46 46 46 45 46 63 71 85 90 93 92 84 80 79 77 74 71 68 65 61 59 56 54 56 59 60 59 59 58

GFSGL_prec_cthk_123.txt.gz
RH
52 58 59 59 63 64 70 68 74 75 70 70 71 70 65 59 59 64 66 61 55 53 52 50 50 45 45 47 51 54 58 52 51 61 60 53 47 50 47 47 47 62 66
50 57 58 61 65 69 71 71 75 77 78 80 75 74 74 76 79 75 76 70 74 72 63 61 56 58 59 55 50 53 54 63 66 60 65 64 62 72 57 52 57 70 73
45 47 59 62 61 62 66 68 69 74 73 79 78 82 83 84 82 78 77 75 75 81 83 74 67 67 67 65 64 67 72 79 78 86 82 78 77 92 90 74 71 70 74
57 45 39 45 55 59 55 52 50 52 56 62 62 62 60 64 67 69 78 77 73 79 85 82 82 85 88 89 82 79 81 84 85 86 85 84 85 85 95 85 84 96 88
61 55 50 44 46 48 48 48 47 49 45 41 40 40 43 49 56 54 55 60 67 68 76 80 79 79 71 77 90 89 88 88 88 93 95 95 88 82 82 83 81 88 89
68 60 60 54 52 57 62 65 65 65 63 61 53 53 60 65 60 60 56 53 55 51 53 55 63 62 61 67 74 78 83 87 86 88 90 92 90 85 84 86 86 82 85
91 81 69 68 60 57 63 66 72 75 81 86 81 87 91 92 91 85 68 66 67 62 70 69 77 84 85 86 84 86 80 81 84 87 88 85 85 86 86 85 85 86 84
95 91 84 79 79 79 76 80 81 83 85 93 93 93 94 96 96 93 89 82 82 68 81 85 84 88 88 90 88 87 84 85 87 88 85 87 85 79 70 69 72 74 80
98 96 91 87 81 81 84 90 88 95 92 90 94 94 98 98 96 96 95 96 93 80 87 91 91 87 90 93 93 91 91 89 88 86 85 87 82 69 64 64 66 70 74
98 97 94 88 87 86 89 93 93 92 94 95 98 99 97 97 97 95 96 98 96 88 90 90 90 93 94 96 95 95 92 80 82 81 75 70 67 67 67 67 66 69 72
93 96 92 90 92 88 91 98 98 99 98 96 99 99 99 97 96 94 92 94 97 98 95 90 86 86 84 82 81 80 79 79 77 76 76 74 71 69 67 64 61 58 60
94 94 93 95 91 90 94 97 98 99 99 97 99 99 99 99 99 96 95 93 92 92 91 89 89 86 85 83 81 79 78 78 81 80 77 72 68 66 65 61 56 54 53
95 96 97 98 96 93 89 84 90 95 94 93 95 94 95 97 96 94 92 94 95 91 89 90 89 85 79 78 81 80 79 76 76 78 74 69 67 65 60 59 56 52 51
94 95 98 93 92 92 83 76 76 73 82 93 92 88 90 91 92 91 90 87 84 80 83 81 75 72 70 70 71 65 61 60 63 66 64 63 65 60 62 60 54 56 51
89 85 80 81 81 78 74 69 74 72 81 89 87 91 93 93 89 90 89 85 80 77 73 66 66 63 64 62 60 59 58 54 54 54 53 58 61 60 54 51 58 58 52
68 67 66 69 70 74 75 78 76 75 85 79 84 82 85 82 75 70 63 59 61 62 61 58 60 63 60 58 52 48 47 46 48 46 48 51 49 46 46 48 50 50 53
52 55 55 55 56 57 54 51 46 44 44 43 42 43 43 40 37 35 33 32 32 31 31 30 32 33 36 39 43 46 46 48 48 43 43 42 42 45 44 42 44 44 46
35 36 34 33 34 34 36 36 35 35 34 34 33 32 33 32 32 32 33 32 34 36 38 40 39 39 42 43 43 43 43 43 45 45 43 42 41 39 40 40 40 39 38
48 46 45 44 41 38 36 35 32 32 31 31 29 27 26 25 23 22 23 24 25 28 30 32 33 35 38 41 42 44 45 45 41 40 38 38 37 37 36 35 33 33 31
34 28 28 31 33 31 32 30 29 30 27 28 28 31 29 23 19 20 20 20 23 25 27 27 29 31 32 34 40 41 41 38 35 36 37 37 33 31 33 33 34 34 34
27 28 17 22 24 25 27 23 26 27 27 27 27 29 30 29 26 24 29 30 31 32 30 29 30 32 33 37 40 42 43 43 42 42 42 39 36 35 33 32 33 34 33
13 13 15 16 17 20 22 20 21 26 28 28 28 29 29 26 29 33 31 33 35 37 40 41 43 43 46 43 43 45 48 49 46 43 38 35 33 35 34 35 34 37 38
20 20 22 23 20 19 26 28 28 29 30 31 31 31 32 34 34 36 38 38 40 41 42 43 43 46 42 69 59 52 50 54 55 49 47 45 43 41 42 41 44 43 44
20 23 22 25 21 24 30 27 31 31 29 31 31 31 31 31 33 38 38 40 41 44 44 45 45 49 48 68 79 61 62 73 71 67 72 63 59 55 54 57 56 58 60
26 25 25 26 26 28 28 30 30 29 28 32 32 32 32 38 43 44 46 48 48 50 53 50 62 53 83 92 58 60 65 73 84 88 79 74 73 74 72 76 76 75 75
25 26 29 34 36 35 35 34 34 28 26 24 27 30 34 39 37 39 41 41 49 50 50 57 58 62 68 78 88 78 81 89 91 88 82 85 84 81 82 81 84 83 82

GFSGL_prec_cthk_126.txt.gz
RH
41 45 43 43 50 49 55 63 69 67 68 74 69 64 60 59 60 53 52 54 64 66 54 49 53 52 45 41 48 48 55 52 53 49 53 66 68 60 54 50 50 54 78
42 49 49 47 47 49 52 59 69 69 71 72 67 68 67 68 68 66 70 68 70 67 65 72 70 63 56 58 56 52 55 60 61 65 67 68 73 74 77 71 72 78 76
45 43 52 52 55 59 61 64 62 69 74 75 77 79 84 82 83 83 80 78 76 75 74 77 83 81 74 70 74 73 70 62 64 73 79 79 82 80 85 89 85 96 92
45 44 43 51 55 50 56 68 67 64 70 73 73 76 80 85 82 77 73 71 71 78 76 73 83 86 82 77 82 84 80 81 81 81 82 85 86 88 88 87 89 90 88
49 46 42 38 44 54 57 56 53 49 51 45 47 53 52 48 43 43 50 54 61 60 64 69 69 73 75 68 69 69 73 82 84 84 84 89 90 88 86 86 83 87 93
55 51 48 44 40 39 44 45 45 47 51 52 54 54 53 48 47 51 57 58 56 54 56 58 60 56 54 56 63 63 64 70 76 80 82 83 85 88 87 87 87 90 88
73 73 70 65 55 49 50 56 57 59 65 66 68 75 75 67 66 73 84 89 88 85 77 64 67 67 68 73 79 81 84 84 81 79 75 80 82 82 83 84 82 81 82
85 84 82 83 77 73 67 61 61 64 66 70 79 83 84 89 89 91 91 91 92 90 89 83 79 76 79 88 90 90 89 87 86 85 86 84 85 85 84 83 74 66 66
81 83 96 97 94 89 82 80 80 82 77 79 88 88 88 89 91 93 93 95 96 94 95 95 91 86 78 89 93 93 91 91 90 89 86 88 89 87 85 79 69 69 70
95 96 99 98 99 96 92 84 81 82 85 87 89 91 90 93 95 99 98 96 97 98 98 95 98 93 83 87 94 96 96 98 95 89 84 85 81 76 73 71 71 70 72
99 98 96 97 99 93 94 86 84 88 90 93 95 93 94 98 100 99 98 97 96 98 98 95 94 93 90 92 93 92 92 91 88 89 83 80 80 79 77 74 66 65 63
95 93 96 91 99 97 92 91 89 92 91 98 100 97 98 98 99 99 99 97 98 96 94 92 92 89 87 87 88 87 88 88 88 88 86 83 78 74 73 74 66 59 56
92 93 96 99 98 90 87 87 89 86 87 92 97 98 96 96 95 94 93 92 90 89 90 93 92 90 88 84 90 88 84 83 84 83 81 79 70 68 67 62 61 59 56
98 98 99 91 91 91 92 83 82 79 85 79 81 85 90 88 89 89 89 86 89 86 84 84 80 77 72 68 67 67 66 70 74 77 79 77 77 75 67 61 54 56 55
96 91 92 91 93 89 84 81 76 76 75 75 87 78 75 82 85 86 86 86 79 71 74 75 75 72 70 68 62 60 58 56 54 55 57 54 54 53 51 53 52 48 47
87 86 80 82 83 83 80 75 74 72 76 74 76 74 82 82 69 60 56 51 48 46 44 43 44 49 52 51 49 47 47 44 41 44 47 48 51 48 46 44 41 41 41
56 57 59 60 59 55 52 45 39 34 32 31 31 31 33 32 32 32 32 32 31 31 32 32 30 30 30 32 36 39 40 41 42 42 42 41 39 37 38 38 38 40 41
42 39 36 34 33 34 34 35 35 34 33 33 31 29 28 26 25 24 23 23 23 24 25 26 28 28 31 32 35 39 40 40 40 42 45 45 41 41 42 44 43 45 45
43 42 42 39 37 35 34 32 29 25 22 20 18 18 19 19 17 16 16 17 17 18 19 22 23 25 26 26 29 35 35 35 36 37 37 34 32 32 35 35 35 34 34
33 31 32 28 25 24 26 27 26 27 24 23 26 28 26 24 20 19 19 21 21 21 23 23 22 23 25 28 29 34 42 42 40 39 37 37 38 37 36 36 36 34 34
28 19 12 18 25 26 25 21 24 24 26 27 28 28 27 25 27 29 33 32 32 31 32 34 32 30 31 32 31 32 36 39 43 40 40 44 44 44 43 40 40 40 37
13 17 17 18 19 19 20 21 19 24 28 29 31 30 30 30 31 30 29 29 31 34 35 36 37 40 41 42 43 44 47 71 66 63 54 44 43 44 44 44 45 45 43
17 16 18 19 18 19 24 28 29 30 32 31 31 31 31 30 29 29 30 31 31 31 32 34 35 38 39 38 45 50 46 62 86 83 71 57 56 60 58 55 53 56 57
21 27 28 28 21 31 32 28 32 32 31 31 29 29 30 30 30 33 37 34 33 33 31 31 34 37 40 37 44 44 71 78 96 91 66 64 69 77 82 81 72 72 68
28 27 30 31 31 32 32 32 31 27 25 22 22 22 24 24 24 26 27 28 29 31 31 33 35 36 39 45 51 54 57 90 88 70 69 73 84 92 91 81 82 86 90
22 22 24 29 29 29 30 29 28 26 21 19 18 19 20 23 26 28 30 30 29 33 37 38 38 39 44 54 63 67 71 79 89 81 78 86 95 93 92 90 89 89 89